Chadron, NE

5:42 PM MDT on September 25, 2016 (GMT -0600)
Chadron Municipal

Weather History for KCDR - February, 2014

Change the Weather History Date:

Friday, February 14, 2014

  Actual Average Record
Temperature  
Mean Temperature 37 °F 27 °F  
Max Temperature 44 °F 42 °F 67 °F (1954)
Min Temperature 30 °F 12 °F -21 °F (1936)
Degree Days  
Heating Degree Days 28 38  
Month to date heating degree days 756 548  
Since 1 July heating degree days 4948 4747  
Cooling Degree Days 0 0  
Month to date cooling degree days 0 0  
Year to date cooling degree days 0 0  
Moisture  
Dew Point 25 °F    
Average Humidity 66    
Maximum Humidity 82    
Minimum Humidity 49    
Precipitation  
Precipitation 0.00 in 0.02 in 0.11 in (1952)
Month to date precipitation 0.21 0.26  
Year to date precipitation 0.41 0.62  
Sea Level Pressure  
Sea Level Pressure 29.94 in    
Wind  
Wind Speed 11 mph (WSW)    
Max Wind Speed 20 mph    
Max Gust Speed 24 mph    
Visibility 10 miles    
Events      
T = Trace of Precipitation, MM = Missing Value Source: NWS Daily Summary

Daily Weather History Graph

Daily Weather History Graph

Search for Another Location

Airport or City:

Trip Planner

Search our weather history database for the weather conditions in past years. The results will help you decide how hot, cold, wet, or windy it might be!

Date:

Astronomy

Feb. 14, 2014 Rise Set
Actual Time 6:50 AM MST 5:22 PM MST
Civil Twilight 6:21 AM MST 5:51 PM MST
Nautical Twilight 5:48 AM MST 6:25 PM MST
Astronomical Twilight 5:15 AM MST 6:57 PM MST
Moon 5:30 PM MST (2/14) 6:18 AM MST (2/14)
Length of Visible Light 11h 30m
Length of Day
10h 31m
Full, 100% of the Moon is Illuminated
Feb 14
Full
Feb 14
Full
Feb 22
Last Quarter
Mar 1
New
Mar 8
First Quarter

Hourly Weather History & Observations

Time (MST) Temp. Windchill Dew Point Humidity Pressure Visibility Wind Dir Wind Speed Gust Speed Precip Events Conditions
12:53 AM 37.0 °F 28.9 °F 27.0 °F 67% 29.85 in 10.0 mi WNW 12.7 mph - N/A   Mostly Cloudy
1:53 AM 36.0 °F 26.7 °F 27.0 °F 70% 29.90 in 10.0 mi WNW 15.0 mph - N/A   Clear
2:53 AM 34.0 °F 23.8 °F 25.0 °F 70% 29.91 in 10.0 mi WNW 16.1 mph - N/A   Clear
3:53 AM 32.0 °F 23.0 °F 24.1 °F 73% 29.93 in 10.0 mi West 11.5 mph - N/A   Clear
4:53 AM 30.9 °F 21.7 °F 21.9 °F 69% 29.98 in 10.0 mi WNW 11.5 mph - N/A   Clear
5:53 AM 30.0 °F 20.0 °F 21.0 °F 69% 30.01 in 10.0 mi WSW 12.7 mph - N/A   Clear
6:53 AM 30.0 °F 19.5 °F 21.0 °F 69% 30.04 in 10.0 mi WNW 13.8 mph - N/A   Clear
7:53 AM 32.0 °F 24.2 °F 21.9 °F 66% 30.06 in 10.0 mi WNW 9.2 mph - N/A   Clear
8:53 AM 34.0 °F 26.0 °F 21.9 °F 61% 30.09 in 10.0 mi West 10.4 mph - N/A   Clear
9:53 AM 37.9 °F 30.9 °F 23.0 °F 55% 30.07 in 10.0 mi WNW 10.4 mph - N/A   Clear
10:53 AM 39.0 °F 31.4 °F 24.1 °F 55% 30.06 in 10.0 mi WNW 12.7 mph - N/A   Clear
11:53 AM 39.9 °F 31.4 °F 25.0 °F 55% 30.05 in 10.0 mi WNW 16.1 mph - N/A   Clear
12:53 PM 41.0 °F 33.5 °F 25.0 °F 53% 30.02 in 10.0 mi West 13.8 mph 21.9 mph N/A   Clear
1:53 PM 42.1 °F 34.9 °F 24.1 °F 49% 29.99 in 10.0 mi West 13.8 mph - N/A   Clear
2:53 PM 42.1 °F 36.6 °F 26.1 °F 53% 29.98 in 10.0 mi West 9.2 mph - N/A   Clear
3:53 PM 43.0 °F 41.3 °F 25.0 °F 49% 29.93 in 10.0 mi SW 3.5 mph - N/A   Clear
4:53 PM 37.9 °F 33.5 °F 26.1 °F 62% 29.93 in 10.0 mi SSW 5.8 mph - N/A   Clear
5:53 PM 35.1 °F 29.3 °F 25.0 °F 67% 29.92 in 10.0 mi SSE 6.9 mph - N/A   Clear
6:53 PM 35.1 °F 30.1 °F 26.1 °F 70% 29.89 in 10.0 mi South 5.8 mph - N/A   Clear
7:53 PM 37.9 °F 30.0 °F 23.0 °F 55% 29.83 in 10.0 mi SSW 12.7 mph - N/A   Clear
8:53 PM 37.9 °F 30.5 °F 26.1 °F 62% 29.81 in 10.0 mi SW 11.5 mph - N/A   Mostly Cloudy
9:53 PM 36.0 °F 29.0 °F 28.0 °F 73% 29.79 in 10.0 mi WSW 9.2 mph - N/A   Clear
10:53 PM 37.0 °F 29.8 °F 28.9 °F 73% 29.76 in 10.0 mi SW 10.4 mph - N/A   Partly Cloudy
11:53 PM 36.0 °F 33.3 °F 28.9 °F 76% 29.75 in 10.0 mi South 3.5 mph - N/A   Scattered Clouds